Time,TemperatureF,DewpointF,PressureIn,WindDirection,WindDirectionDegrees,WindSpeedMPH,WindSpeedGustMPH,Humidity,HourlyPrecipIn,Conditions,Clouds,dailyrainin,SoftwareType,DateUTC
2013-05-23 00:10:00,58.0,56.0,29.90,SSE,162,0.0,4.0,93,0.00,,,0.00,Wunderground v.1.15,2013-05-23 05:10:00,
2013-05-23 00:19:00,58.1,56.1,29.90,SSE,162,0.0,4.0,93,0.00,,,0.00,Wunderground v.1.15,2013-05-23 05:19:00,
2013-05-23 00:29:00,58.0,56.0,29.90,East,82,0.0,4.0,93,0.00,,,0.00,Wunderground v.1.15,2013-05-23 05:29:00,
2013-05-23 00:39:00,58.0,56.0,29.90,East,82,0.0,4.0,93,0.00,,,0.00,Wunderground v.1.15,2013-05-23 05:39:00,
2013-05-23 00:45:00,57.6,55.3,29.90,East,82,0.0,4.0,92,0.00,,,0.00,Wunderground v.1.15,2013-05-23 05:45:00,
2013-05-23 00:54:00,57.0,54.7,29.90,East,82,0.0,4.0,92,0.00,,,0.00,Wunderground v.1.15,2013-05-23 05:54:00,
2013-05-23 01:04:00,56.2,54.2,29.90,East,82,0.0,4.0,93,0.00,,,0.00,Wunderground v.1.15,2013-05-23 06:04:00,
2013-05-23 01:14:00,55.5,53.8,29.90,East,82,0.0,4.0,94,0.00,,,0.00,Wunderground v.1.15,2013-05-23 06:14:00,
2013-05-23 01:20:00,55.2,53.5,29.89,East,82,0.0,4.0,94,0.00,,,0.00,Wunderground v.1.15,2013-05-23 06:20:00,
2013-05-23 01:30:00,54.5,52.8,29.89,East,82,0.0,4.0,94,0.00,,,0.00,Wunderground v.1.15,2013-05-23 06:30:00,
2013-05-23 01:39:00,53.8,52.1,29.89,East,82,0.0,4.0,94,0.00,,,0.00,Wunderground v.1.15,2013-05-23 06:39:00,
2013-05-23 01:49:00,53.7,52.3,29.89,East,82,0.0,4.0,95,0.00,,,0.00,Wunderground v.1.15,2013-05-23 06:49:00,
2013-05-23 02:00:00,53.5,52.1,29.90,East,82,0.0,4.0,95,0.00,,,0.00,Wunderground v.1.15,2013-05-23 07:00:00,
2013-05-23 02:10:00,53.3,52.2,29.90,East,82,0.0,4.0,96,0.00,,,0.00,Wunderground v.1.15,2013-05-23 07:10:00,
2013-05-23 02:19:00,53.0,51.9,29.89,East,82,0.0,4.0,96,0.00,,,0.00,Wunderground v.1.15,2013-05-23 07:19:00,
2013-05-23 02:29:00,53.2,52.1,29.90,East,82,0.0,4.0,96,0.00,,,0.00,Wunderground v.1.15,2013-05-23 07:29:00,
2013-05-23 02:40:00,52.9,51.8,29.90,East,82,0.0,4.0,96,0.00,,,0.00,Wunderground v.1.15,2013-05-23 07:40:00,
2013-05-23 02:49:00,52.9,52.1,29.90,East,82,0.0,4.0,97,0.00,,,0.00,Wunderground v.1.15,2013-05-23 07:49:00,
2013-05-23 02:59:00,52.5,51.4,29.90,East,82,0.0,4.0,96,0.00,,,0.00,Wunderground v.1.15,2013-05-23 07:59:00,
2013-05-23 03:09:00,52.0,50.9,29.90,East,82,0.0,4.0,96,0.00,,,0.00,Wunderground v.1.15,2013-05-23 08:09:00,
2013-05-23 03:20:00,51.4,50.3,29.91,East,82,0.0,4.0,96,0.00,,,0.00,Wunderground v.1.15,2013-05-23 08:20:00,
2013-05-23 03:29:00,51.3,50.5,29.91,East,82,0.0,4.0,97,0.00,,,0.00,Wunderground v.1.15,2013-05-23 08:29:00,
2013-05-23 03:39:00,51.5,50.7,29.92,East,82,0.0,4.0,97,0.00,,,0.00,Wunderground v.1.15,2013-05-23 08:39:00,
2013-05-23 03:50:00,51.8,51.0,29.92,East,82,0.0,4.0,97,0.00,,,0.00,Wunderground v.1.15,2013-05-23 08:50:00,
2013-05-23 04:00:00,51.3,50.5,29.93,East,82,0.0,4.0,97,0.00,,,0.00,Wunderground v.1.15,2013-05-23 09:00:00,
2013-05-23 04:09:00,51.4,50.6,29.93,East,82,0.0,4.0,97,0.00,,,0.00,Wunderground v.1.15,2013-05-23 09:09:00,
2013-05-23 04:19:00,51.0,50.2,29.94,East,82,0.0,4.0,97,0.00,,,0.00,Wunderground v.1.15,2013-05-23 09:19:00,
2013-05-23 04:30:00,50.6,49.8,29.94,East,82,0.0,4.0,97,0.00,,,0.00,Wunderground v.1.15,2013-05-23 09:30:00,
2013-05-23 04:40:00,50.4,49.6,29.94,East,82,0.0,4.0,97,0.00,,,0.00,Wunderground v.1.15,2013-05-23 09:40:00,
2013-05-23 04:49:00,50.5,50.0,29.94,East,82,0.0,4.0,98,0.00,,,0.00,Wunderground v.1.15,2013-05-23 09:49:00,
2013-05-23 04:59:00,50.0,49.2,29.95,East,82,0.0,4.0,97,0.00,,,0.00,Wunderground v.1.15,2013-05-23 09:59:00,
2013-05-23 05:10:00,49.9,49.4,29.95,East,82,0.0,4.0,98,0.00,,,0.00,Wunderground v.1.15,2013-05-23 10:10:00,
2013-05-23 05:19:00,50.2,49.7,29.95,East,82,0.0,4.0,98,0.00,,,0.00,Wunderground v.1.15,2013-05-23 10:19:00,
2013-05-23 05:29:00,50.1,49.6,29.95,East,82,0.0,4.0,98,0.00,,,0.00,Wunderground v.1.15,2013-05-23 10:29:00,
2013-05-23 05:39:00,50.0,49.5,29.96,East,82,0.0,4.0,98,0.00,,,0.00,Wunderground v.1.15,2013-05-23 10:39:00,
2013-05-23 05:50:00,49.7,49.2,29.96,East,82,0.0,4.0,98,0.00,,,0.00,Wunderground v.1.15,2013-05-23 10:50:00,
2013-05-23 05:59:00,49.6,49.1,29.97,East,82,0.0,4.0,98,0.00,,,0.00,Wunderground v.1.15,2013-05-23 10:59:00,
2013-05-23 06:09:00,49.5,49.0,29.97,East,82,0.0,4.0,98,0.00,,,0.00,Wunderground v.1.15,2013-05-23 11:09:00,
2013-05-23 06:20:00,49.5,49.0,29.98,East,82,0.0,4.0,98,0.00,,,0.00,Wunderground v.1.15,2013-05-23 11:20:00,
2013-05-23 06:30:00,49.8,49.3,29.99,East,82,0.0,4.0,98,0.00,,,0.00,Wunderground v.1.15,2013-05-23 11:30:00,
2013-05-23 06:39:00,50.2,49.7,29.99,East,82,0.0,4.0,98,0.00,,,0.00,Wunderground v.1.15,2013-05-23 11:39:00,
2013-05-23 06:49:00,50.8,50.3,30.00,SSW,205,0.0,4.0,98,0.00,,,0.00,Wunderground v.1.15,2013-05-23 11:49:00,
2013-05-23 07:00:00,52.0,51.7,30.00,SSE,159,0.0,4.0,99,0.00,,,0.00,Wunderground v.1.15,2013-05-23 12:00:00,
2013-05-23 07:10:00,53.7,53.4,30.00,SSW,193,0.0,4.0,99,0.00,,,0.00,Wunderground v.1.15,2013-05-23 12:10:00,
2013-05-23 07:19:00,55.4,55.1,30.01,WSW,240,0.0,4.0,99,0.00,,,0.00,Wunderground v.1.15,2013-05-23 12:19:00,
2013-05-23 07:29:00,56.9,56.3,30.01,ESE,120,0.0,4.0,98,0.00,,,0.00,Wunderground v.1.15,2013-05-23 12:29:00,
2013-05-23 07:40:00,58.0,56.6,30.01,WSW,250,1.0,4.0,95,0.00,,,0.00,Wunderground v.1.15,2013-05-23 12:40:00,
2013-05-23 07:49:00,58.9,56.9,30.01,WSW,256,1.0,4.0,93,0.00,,,0.00,Wunderground v.1.15,2013-05-23 12:49:00,
2013-05-23 07:59:00,59.2,56.3,30.02,East,82,2.0,2.0,90,0.00,,,0.00,Wunderground v.1.15,2013-05-23 12:59:00,
2013-05-23 08:09:00,60.3,56.7,30.02,SSE,161,1.0,1.0,88,0.00,,,0.00,Wunderground v.1.15,2013-05-23 13:09:00,
2013-05-23 08:20:00,60.7,55.5,30.03,West,270,2.0,2.0,83,0.00,,,0.00,Wunderground v.1.15,2013-05-23 13:20:00,
2013-05-23 08:29:00,61.3,55.8,30.03,WSW,239,1.0,4.0,82,0.00,,,0.00,Wunderground v.1.15,2013-05-23 13:29:00,
2013-05-23 08:39:00,61.9,55.3,30.03,SW,236,2.0,4.0,79,0.00,,,0.00,Wunderground v.1.15,2013-05-23 13:39:00,
2013-05-23 08:49:00,61.4,54.1,30.03,West,262,4.0,8.0,77,0.00,,,0.00,Wunderground v.1.15,2013-05-23 13:49:00,
2013-05-23 08:55:00,61.3,54.0,30.03,WNW,300,5.0,8.0,77,0.00,,,0.00,Wunderground v.1.15,2013-05-23 13:55:00,
2013-05-23 09:05:00,61.4,54.1,30.02,WSW,243,4.0,6.0,77,0.00,,,0.00,Wunderground v.1.15,2013-05-23 14:05:00,
2013-05-23 09:14:00,62.2,54.2,30.01,WNW,282,4.0,4.0,75,0.00,,,0.00,Wunderground v.1.15,2013-05-23 14:14:00,
2013-05-23 09:24:00,62.6,54.2,30.01,NW,326,3.0,4.0,74,0.00,,,0.00,Wunderground v.1.15,2013-05-23 14:24:00,
2013-05-23 09:30:00,63.1,55.0,30.02,NNW,338,2.0,4.0,75,0.00,,,0.00,Wunderground v.1.15,2013-05-23 14:30:00,
2013-05-23 09:40:00,64.3,55.5,30.03,WSW,240,2.0,6.0,73,0.00,,,0.00,Wunderground v.1.15,2013-05-23 14:40:00,
2013-05-23 09:49:00,63.9,55.8,30.03,West,269,3.0,4.0,75,0.00,,,0.00,Wunderground v.1.15,2013-05-23 14:49:00,
2013-05-23 09:59:00,64.7,55.5,30.04,WNW,288,3.0,3.0,72,0.00,,,0.00,Wunderground v.1.15,2013-05-23 14:59:00,
2013-05-23 10:09:00,66.0,56.3,30.05,SW,236,1.0,4.0,71,0.00,,,0.00,Wunderground v.1.15,2013-05-23 15:09:00,
2013-05-23 10:20:00,65.4,54.6,30.06,WNW,294,2.0,4.0,68,0.00,,,0.00,Wunderground v.1.15,2013-05-23 15:20:00,
2013-05-23 10:29:00,66.2,55.7,30.07,SW,233,1.0,4.0,69,0.00,,,0.00,Wunderground v.1.15,2013-05-23 15:29:00,
2013-05-23 10:39:00,66.5,56.4,30.08,SE,124,1.0,4.0,70,0.00,,,0.00,Wunderground v.1.15,2013-05-23 15:39:00,
2013-05-23 10:49:00,66.6,55.3,30.08,East,94,2.0,2.0,67,0.00,,,0.00,Wunderground v.1.15,2013-05-23 15:49:00,
2013-05-23 10:55:00,66.4,55.5,30.08,WNW,297,2.0,4.0,68,0.00,,,0.00,Wunderground v.1.15,2013-05-23 15:55:00,
2013-05-23 11:04:00,65.8,55.7,30.08,East,85,1.0,4.0,70,0.00,,,0.00,Wunderground v.1.15,2013-05-23 16:04:00,
2013-05-23 11:14:00,65.6,55.9,30.08,SSW,210,2.0,7.0,71,0.00,,,0.00,Wunderground v.1.15,2013-05-23 16:14:00,
2013-05-23 11:24:00,66.2,55.3,30.09,ESE,104,2.0,4.0,68,0.00,,,0.00,Wunderground v.1.15,2013-05-23 16:24:00,
2013-05-23 11:30:00,65.8,54.9,30.09,WSW,250,1.0,4.0,68,0.00,,,0.00,Wunderground v.1.15,2013-05-23 16:30:00,
2013-05-23 11:40:00,65.8,55.7,30.09,SW,224,1.0,4.0,70,0.00,,,0.00,Wunderground v.1.15,2013-05-23 16:40:00,
2013-05-23 11:49:00,65.8,55.7,30.09,SE,145,2.0,4.0,70,0.00,,,0.00,Wunderground v.1.15,2013-05-23 16:49:00,
2013-05-23 11:59:00,65.6,55.5,30.10,WNW,293,1.0,1.0,70,0.00,,,0.00,Wunderground v.1.15,2013-05-23 16:59:00,
2013-05-23 12:10:00,65.1,55.1,30.10,WSW,252,3.0,4.0,70,0.00,,,0.00,Wunderground v.1.15,2013-05-23 17:10:00,
2013-05-23 12:20:00,65.4,55.4,30.10,West,281,3.0,3.0,70,0.00,,,0.00,Wunderground v.1.15,2013-05-23 17:20:00,
2013-05-23 12:29:00,65.2,55.2,30.10,West,269,3.0,3.0,70,0.00,,,0.00,Wunderground v.1.15,2013-05-23 17:29:00,
2013-05-23 12:39:00,65.6,55.2,30.10,WNW,289,3.0,5.0,69,0.00,,,0.00,Wunderground v.1.15,2013-05-23 17:39:00,
2013-05-23 12:50:00,65.5,55.8,30.10,SW,219,3.0,3.0,71,0.00,,,0.00,Wunderground v.1.15,2013-05-23 17:50:00,
2013-05-23 12:59:00,65.8,55.7,30.10,SSW,204,2.0,2.0,70,0.00,,,0.00,Wunderground v.1.15,2013-05-23 17:59:00,
2013-05-23 13:09:00,65.9,57.0,30.10,WSW,245,4.0,4.0,73,0.00,,,0.00,Wunderground v.1.15,2013-05-23 18:09:00,
2013-05-23 13:19:00,66.6,56.5,30.11,WSW,252,3.0,4.0,70,0.00,,,0.00,Wunderground v.1.15,2013-05-23 18:19:00,
2013-05-23 13:30:00,66.8,56.7,30.11,SW,226,3.0,3.0,70,0.00,,,0.00,Wunderground v.1.15,2013-05-23 18:30:00,
2013-05-23 13:39:00,67.2,57.9,30.11,WSW,257,2.0,2.0,72,0.00,,,0.00,Wunderground v.1.15,2013-05-23 18:39:00,
2013-05-23 13:49:00,67.8,57.7,30.11,SW,217,2.0,4.0,70,0.00,,,0.00,Wunderground v.1.15,2013-05-23 18:49:00,
2013-05-23 14:00:00,67.4,58.1,30.11,WNW,301,2.0,4.0,72,0.00,,,0.00,Wunderground v.1.15,2013-05-23 19:00:00,
2013-05-23 14:10:00,68.4,57.4,30.11,WSW,241,2.0,4.0,68,0.00,,,0.00,Wunderground v.1.15,2013-05-23 19:10:00,
2013-05-23 14:19:00,67.2,56.3,30.11,WSW,255,3.0,6.0,68,0.00,,,0.00,Wunderground v.1.15,2013-05-23 19:19:00,
2013-05-23 14:29:00,67.4,56.9,30.11,NNE,21,2.0,4.0,69,0.00,,,0.00,Wunderground v.1.15,2013-05-23 19:29:00,
2013-05-23 14:40:00,68.4,57.8,30.11,West,269,1.0,1.0,69,0.00,,,0.00,Wunderground v.1.15,2013-05-23 19:40:00,
2013-05-23 14:50:00,68.3,56.9,30.11,NW,309,2.0,2.0,67,0.00,,,0.00,Wunderground v.1.15,2013-05-23 19:50:00,
2013-05-23 14:59:00,69.0,58.4,30.11,NW,304,2.0,2.0,69,0.00,,,0.00,Wunderground v.1.15,2013-05-23 19:59:00,
2013-05-23 15:09:00,68.3,57.7,30.10,WNW,297,3.0,6.0,69,0.00,,,0.00,Wunderground v.1.15,2013-05-23 20:09:00,
2013-05-23 15:20:00,68.1,57.1,30.10,SW,226,3.0,3.0,68,0.00,,,0.00,Wunderground v.1.15,2013-05-23 20:20:00,
2013-05-23 15:29:00,68.4,57.4,30.10,West,278,3.0,3.0,68,0.00,,,0.00,Wunderground v.1.15,2013-05-23 20:29:00,
2013-05-23 15:39:00,68.6,57.2,30.10,NNE,32,1.0,1.0,67,0.00,,,0.00,Wunderground v.1.15,2013-05-23 20:39:00,
2013-05-23 15:49:00,69.0,58.4,30.10,West,263,2.0,4.0,69,0.00,,,0.00,Wunderground v.1.15,2013-05-23 20:49:00,
2013-05-23 16:00:00,69.6,57.3,30.11,NNE,28,3.0,4.0,65,0.00,,,0.00,Wunderground v.1.15,2013-05-23 21:00:00,
2013-05-23 16:09:00,69.5,57.6,30.10,NW,312,3.0,4.0,66,0.00,,,0.00,Wunderground v.1.15,2013-05-23 21:09:00,
2013-05-23 16:19:00,70.1,58.2,30.10,West,281,2.0,2.0,66,0.00,,,0.00,Wunderground v.1.15,2013-05-23 21:19:00,
2013-05-23 16:30:00,70.6,58.3,30.10,West,259,2.0,2.0,65,0.00,,,0.00,Wunderground v.1.15,2013-05-23 21:30:00,
2013-05-23 16:40:00,69.5,58.1,30.10,WNW,283,3.0,3.0,67,0.00,,,0.00,Wunderground v.1.15,2013-05-23 21:40:00,
2013-05-23 16:49:00,68.1,56.7,30.10,WSW,243,2.0,4.0,67,0.00,,,0.00,Wunderground v.1.15,2013-05-23 21:49:00,
2013-05-23 16:59:00,68.1,56.7,30.11,West,274,2.0,2.0,67,0.00,,,0.00,Wunderground v.1.15,2013-05-23 21:59:00,
2013-05-23 17:10:00,67.5,56.6,30.11,SW,231,2.0,4.0,68,0.00,,,0.00,Wunderground v.1.15,2013-05-23 22:10:00,
2013-05-23 17:20:00,67.2,56.3,30.11,SW,233,2.0,5.0,68,0.00,,,0.00,Wunderground v.1.15,2013-05-23 22:20:00,
2013-05-23 17:29:00,66.8,56.3,30.12,SSW,206,2.0,4.0,69,0.00,,,0.00,Wunderground v.1.15,2013-05-23 22:29:00,
2013-05-23 17:39:00,66.9,56.4,30.11,West,280,1.0,4.0,69,0.00,,,0.00,Wunderground v.1.15,2013-05-23 22:39:00,
2013-05-23 17:50:00,66.8,56.3,30.11,WSW,252,2.0,4.0,69,0.00,,,0.00,Wunderground v.1.15,2013-05-23 22:50:00,
2013-05-23 17:59:00,66.9,56.8,30.11,NW,308,2.0,4.0,70,0.00,,,0.00,Wunderground v.1.15,2013-05-23 22:59:00,
2013-05-23 18:09:00,66.9,56.4,30.11,WNW,290,2.0,4.0,69,0.00,,,0.00,Wunderground v.1.15,2013-05-23 23:09:00,
2013-05-23 18:19:00,66.9,56.4,30.11,NNW,336,3.0,9.0,69,0.00,,,0.00,Wunderground v.1.15,2013-05-23 23:19:00,
2013-05-23 18:30:00,66.6,56.9,30.11,WNW,288,3.0,3.0,71,0.00,,,0.00,Wunderground v.1.15,2013-05-23 23:30:00,
2013-05-23 18:39:00,66.1,56.8,30.11,West,273,1.0,1.0,72,0.00,,,0.00,Wunderground v.1.15,2013-05-23 23:39:00,
2013-05-23 18:49:00,65.7,56.8,30.11,WNW,298,1.0,1.0,73,0.00,,,0.00,Wunderground v.1.15,2013-05-23 23:49:00,
2013-05-23 18:59:00,65.6,56.7,30.11,West,269,1.0,4.0,73,0.00,,,0.00,Wunderground v.1.15,2013-05-23 23:59:00,
2013-05-23 19:05:00,65.5,56.6,30.11,NW,316,1.0,4.0,73,0.00,,,0.00,Wunderground v.1.15,2013-05-24 00:05:00,
2013-05-23 19:14:00,65.1,56.2,30.11,NNW,333,1.0,2.0,73,0.00,,,0.00,Wunderground v.1.15,2013-05-24 00:14:00,
2013-05-23 19:24:00,64.5,55.7,30.11,West,266,0.0,4.0,73,0.00,,,0.00,Wunderground v.1.15,2013-05-24 00:24:00,
2013-05-23 19:34:00,64.0,55.9,30.11,West,263,1.0,4.0,75,0.00,,,0.00,Wunderground v.1.15,2013-05-24 00:34:00,
2013-05-23 19:40:00,63.7,55.6,30.11,WNW,282,0.0,4.0,75,0.00,,,0.00,Wunderground v.1.15,2013-05-24 00:40:00,
2013-05-23 19:50:00,63.2,55.9,30.11,NNW,328,0.0,4.0,77,0.00,,,0.00,Wunderground v.1.15,2013-05-24 00:50:00,
2013-05-23 19:59:00,62.8,55.8,30.11,NW,305,1.0,4.0,78,0.00,,,0.00,Wunderground v.1.15,2013-05-24 00:59:00,
2013-05-23 20:09:00,62.5,55.5,30.13,NNW,337,1.0,1.0,78,0.00,,,0.00,Wunderground v.1.15,2013-05-24 01:09:00,
2013-05-23 20:20:00,61.9,55.7,30.13,NW,309,0.0,4.0,80,0.00,,,0.00,Wunderground v.1.15,2013-05-24 01:20:00,
2013-05-23 20:30:00,61.6,55.4,30.13,WNW,300,0.0,4.0,80,0.00,,,0.00,Wunderground v.1.15,2013-05-24 01:30:00,
2013-05-23 20:39:00,60.9,55.4,30.13,NNW,341,0.0,4.0,82,0.00,,,0.00,Wunderground v.1.15,2013-05-24 01:39:00,
2013-05-23 20:49:00,60.5,55.3,30.14,NW,321,0.0,4.0,83,0.00,,,0.00,Wunderground v.1.15,2013-05-24 01:49:00,
2013-05-23 21:00:00,60.0,55.2,30.14,WNW,293,0.0,4.0,84,0.00,,,0.00,Wunderground v.1.15,2013-05-24 02:00:00,
2013-05-23 21:09:00,59.6,55.1,30.14,WNW,300,0.0,4.0,85,0.00,,,0.00,Wunderground v.1.15,2013-05-24 02:09:00,
2013-05-23 21:19:00,59.6,55.1,30.14,NNW,338,0.0,4.0,85,0.00,,,0.00,Wunderground v.1.15,2013-05-24 02:19:00,
2013-05-23 21:29:00,59.3,54.8,30.15,WNW,290,0.0,4.0,85,0.00,,,0.00,Wunderground v.1.15,2013-05-24 02:29:00,
2013-05-23 21:35:00,59.0,54.5,30.16,WNW,290,0.0,4.0,85,0.00,,,0.00,Wunderground v.1.15,2013-05-24 02:35:00,
2013-05-23 21:44:00,58.0,54.2,30.16,WNW,290,0.0,4.0,87,0.00,,,0.00,Wunderground v.1.15,2013-05-24 02:44:00,
2013-05-23 21:54:00,57.5,54.0,30.16,WNW,291,0.0,4.0,88,0.00,,,0.00,Wunderground v.1.15,2013-05-24 02:54:00,
2013-05-23 22:04:00,57.0,54.1,30.16,WNW,290,0.0,4.0,90,0.00,,,0.00,Wunderground v.1.15,2013-05-24 03:04:00,
2013-05-23 22:10:00,56.8,53.9,30.16,WNW,290,0.0,4.0,90,0.00,,,0.00,Wunderground v.1.15,2013-05-24 03:10:00,
2013-05-23 22:20:00,56.1,53.2,30.17,WNW,291,0.0,4.0,90,0.00,,,0.00,Wunderground v.1.15,2013-05-24 03:20:00,
2013-05-23 22:29:00,55.2,52.3,30.18,WNW,291,0.0,4.0,90,0.00,,,0.00,Wunderground v.1.15,2013-05-24 03:29:00,
2013-05-23 22:39:00,54.5,52.2,30.18,WNW,291,0.0,4.0,92,0.00,,,0.00,Wunderground v.1.15,2013-05-24 03:39:00,
2013-05-23 22:50:00,54.1,52.1,30.17,WNW,291,0.0,4.0,93,0.00,,,0.00,Wunderground v.1.15,2013-05-24 03:50:00,
2013-05-23 22:55:00,54.0,52.0,30.17,WNW,292,0.0,4.0,93,0.00,,,0.00,Wunderground v.1.15,2013-05-24 03:55:00,
2013-05-23 23:04:00,54.3,52.9,30.17,WNW,297,0.0,4.0,95,0.00,,,0.00,Wunderground v.1.15,2013-05-24 04:04:00,
2013-05-23 23:14:00,54.9,53.2,30.18,WNW,296,0.0,4.0,94,0.00,,,0.00,Wunderground v.1.15,2013-05-24 04:14:00,
2013-05-23 23:19:00,54.7,52.7,30.18,WNW,297,0.0,4.0,93,0.00,,,0.00,Wunderground v.1.15,2013-05-24 04:19:00,
2013-05-23 23:24:00,54.2,52.2,30.18,WNW,297,0.0,4.0,93,0.00,,,0.00,Wunderground v.1.15,2013-05-24 04:24:00,
2013-05-23 23:30:00,53.7,51.7,30.18,WNW,297,0.0,4.0,93,0.00,,,0.00,Wunderground v.1.15,2013-05-24 04:30:00,
2013-05-23 23:39:00,53.4,52.0,30.18,WNW,296,0.0,4.0,95,0.00,,,0.00,Wunderground v.1.15,2013-05-24 04:39:00,
2013-05-23 23:49:00,53.3,51.9,30.18,WNW,296,0.0,4.0,95,0.00,,,0.00,Wunderground v.1.15,2013-05-24 04:49:00,
2013-05-23 23:59:00,53.2,51.8,30.18,WNW,288,0.0,4.0,95,0.00,,,0.00,Wunderground v.1.15,2013-05-24 04:59:00,